| time (UTC) | temp C | wind direction | speed KPH | gust KPH | rain 1hr cm | rain 24hr cm | rain mn cm | humidity % | barometer mb |
| 20260507010114 | 13 | 101 | 3.2 | 9.7 | 0.00 | 0.46 | 0.46 | 95 | 1018.7 |
| 20260507010004 | 13 | 91 | 3.2 | 9.7 | 0.00 | 0.46 | 0.46 | 95 | 1018.7 |
| 20260507004540 | 13 | 20 | 3.2 | 16.1 | 0.00 | 0.46 | 0.46 | 95 | 1017.4 |
| 20260507003015 | 13 | 83 | 8.0 | 16.1 | 0.03 | 0.46 | 0.46 | 95 | 1017.3 |
| 20260507001557 | 13 | 65 | 3.2 | 11.3 | 0.03 | 0.46 | 0.46 | 95 | 1017.9 |
| 20260507000030 | 13 | 191 | 1.6 | 11.3 | 0.10 | 0.46 | 0.46 | 95 | 1017.8 |
| 20260506234510 | 13 | 151 | 1.6 | 11.3 | 0.13 | 0.46 | 0.46 | 95 | 1017.4 |
| 20260506233050 | 13 | 150 | 0.0 | 12.9 | 0.18 | 0.43 | 0.43 | 95 | 1017.4 |
| 20260506231523 | 13 | 356 | 6.4 | 14.5 | 0.36 | 0.43 | 0.43 | 95 | 1016.9 |
| 20260506230010 | 13 | 26 | 4.8 | 8.0 | 0.33 | 0.36 | 0.36 | 95 | 1017.4 |
| 20260506224540 | 14 | 101 | 0.0 | 4.8 | 0.33 | 0.33 | 0.33 | 95 | 1018.1 |
| 20260506223017 | 14 | 148 | 0.0 | 1.6 | 0.23 | 0.23 | 0.25 | 95 | 1018.1 |
| 20260506221610 | 14 | 43 | 0.0 | 11.3 | 0.08 | 0.08 | 0.10 | 95 | 1017.9 |
| 20260506220037 | 13 | 131 | 4.8 | 11.3 | 0.03 | 0.03 | 0.03 | 95 | 1018.0 |
| 20260506214505 | 13 | 65 | 3.2 | 12.9 | 0.00 | 0.00 | 0.00 | 94 | 1017.9 |
| 20260506213048 | 13 | 119 | 6.4 | 16.1 | 0.00 | 0.00 | 0.00 | 94 | 1018.1 |
| 20260506211522 | 13 | 94 | 8.0 | 20.9 | 0.00 | 0.00 | 0.00 | 94 | 1017.9 |
| 20260506210105 | 13 | 94 | 8.0 | 19.3 | 0.00 | 0.00 | 0.00 | 94 | 1017.8 |
| 20260506204536 | 13 | 172 | 8.0 | 20.9 | 0.00 | 0.00 | 0.00 | 94 | 1017.7 |
| 20260506203014 | 13 | 128 | 4.8 | 17.7 | 0.00 | 0.00 | 0.00 | 94 | 1017.7 |
| 20260506201550 | 13 | 124 | 8.0 | 20.9 | 0.00 | 0.00 | 0.00 | 93 | 1017.6 |
| 20260506200026 | 13 | 176 | 6.4 | 16.1 | 0.00 | 0.00 | 0.00 | 93 | 1017.3 |
| 20260506194556 | 13 | 62 | 4.8 | 19.3 | 0.00 | 0.00 | 0.00 | 93 | 1017.3 |
| 20260506193034 | 13 | 89 | 8.0 | 19.3 | 0.00 | 0.00 | 0.00 | 93 | 1017.1 |
| 20260506191551 | 13 | 156 | 9.7 | 24.1 | 0.00 | 0.00 | 0.00 | 93 | 1017.2 |
| 20260506190029 | 13 | 101 | 8.0 | 17.7 | 0.00 | 0.00 | 0.00 | 92 | 1017.0 |
| 20260506184620 | 13 | 61 | 11.3 | 16.1 | 0.00 | 0.00 | 0.00 | 92 | 1017.0 |
| 20260506183018 | -17 | 0.0 | 0.0 | 0.00 | 0.00 | 0.00 | 1017.1 | ||
| 20260506181512 | -17 | 0.0 | 0.0 | 0.00 | 0.00 | 0.00 | 1017.0 | ||
| 20260506174539 | -17 | 0.0 | 0.0 | 0.00 | 0.00 | 0.00 | 1016.9 | ||
| 20260506173159 | -17 | 0.0 | 0.0 | 0.00 | 0.00 | 0.00 | 1016.9 | ||
| 20260506171518 | -17 | 0.0 | 0.0 | 0.00 | 0.00 | 0.00 | 1016.7 | ||
| 20260506170010 | -17 | 0.0 | 0.0 | 0.00 | 0.00 | 0.00 | 1016.8 | ||
| 20260506163036 | -17 | 0.0 | 0.0 | 0.00 | 0.00 | 0.00 | 1016.7 | ||
| 20260506160044 | -17 | 0.0 | 0.0 | 0.00 | 0.00 | 0.00 | 1016.8 | ||
| 20260506154545 | -17 | 0.0 | 0.0 | 0.00 | 0.00 | 0.00 | 1016.9 | ||
| 20260506151528 | -17 | 0.0 | 0.0 | 0.00 | 0.00 | 0.00 | 1017.0 | ||
| 20260506150110 | -17 | 0.0 | 0.0 | 0.00 | 0.00 | 0.00 | 1017.0 | ||
| 20260506144504 | -17 | 0.0 | 0.0 | 0.00 | 0.00 | 0.00 | 1017.1 | ||
| 20260506143051 | -17 | 0.0 | 0.0 | 0.00 | 0.00 | 0.00 | 1017.1 | ||
| 20260506140049 | -17 | 0.0 | 0.0 | 0.00 | 0.00 | 0.00 | 1017.1 | ||
| 20260506133035 | -17 | 0.0 | 0.0 | 0.00 | 0.00 | 0.00 | 1017.3 | ||
| 20260506131604 | -17 | 0.0 | 0.0 | 0.00 | 0.00 | 0.00 | 1017.3 | ||
| 20260506124528 | -17 | 0.0 | 0.0 | 0.00 | 0.00 | 0.00 | 1017.8 | ||
| 20260506121510 | 15 | 98 | 6.4 | 19.3 | 0.00 | 0.00 | 0.00 | 87 | 1017.7 |
| 20260506120050 | 16 | 205 | 1.6 | 22.5 | 0.00 | 0.00 | 0.00 | 87 | 1017.6 |
| 20260506114535 | 15 | 133 | 9.7 | 27.4 | 0.00 | 0.00 | 0.00 | 87 | 1017.6 |
| 20260506113006 | 16 | 116 | 9.7 | 29.0 | 0.00 | 0.00 | 0.00 | 86 | 1017.6 |
| 20260506111540 | 16 | 85 | 9.7 | 25.7 | 0.00 | 0.00 | 0.00 | 85 | 1017.5 |
| 20260506110022 | 16 | 131 | 11.3 | 27.4 | 0.00 | 0.00 | 0.00 | 85 | 1017.6 |
| 20260506104601 | 16 | 119 | 8.0 | 24.1 | 0.00 | 0.00 | 0.00 | 85 | 1018.1 |
| 20260506103034 | 16 | 111 | 6.4 | 17.7 | 0.00 | 0.00 | 0.00 | 86 | 1018.3 |
| 20260506101511 | 16 | 106 | 8.0 | 22.5 | 0.00 | 0.00 | 0.00 | 86 | 1018.3 |
| 20260506100104 | 16 | 81 | 9.7 | 22.5 | 0.00 | 0.00 | 0.00 | 86 | 1018.2 |
| 20260506094529 | 16 | 43 | 1.6 | 19.3 | 0.00 | 0.00 | 0.00 | 86 | 1018.2 |
| 20260506093005 | 16 | 88 | 6.4 | 24.1 | 0.00 | 0.00 | 0.00 | 86 | 1018.2 |
| 20260506091542 | 16 | 101 | 8.0 | 19.3 | 0.00 | 0.00 | 0.00 | 85 | 1018.3 |
| 20260506090018 | 16 | 74 | 9.7 | 22.5 | 0.00 | 0.00 | 0.00 | 86 | 1018.2 |
| 20260506084603 | 16 | 68 | 8.0 | 19.3 | 0.00 | 0.00 | 0.00 | 86 | 1018.1 |
| 20260506083033 | 15 | 75 | 8.0 | 17.7 | 0.00 | 0.00 | 0.00 | 88 | 1017.8 |
| 20260506081512 | 15 | 96 | 4.8 | 19.3 | 0.00 | 0.00 | 0.00 | 88 | 1017.9 |
| 20260506073009 | 14 | 139 | 9.7 | 19.3 | 0.00 | 0.00 | 0.00 | 93 | 1017.6 |
| 20260506071544 | 14 | 120 | 8.0 | 20.9 | 0.00 | 0.00 | 0.00 | 94 | 1017.5 |
| 20260506061502 | -17 | 0.0 | 0.0 | 0.00 | 0.00 | 0.00 | 1017.5 | ||
| 20260506044524 | -17 | 0.0 | 0.0 | 0.00 | 0.00 | 0.00 | 1017.1 | ||
| 20260506043004 | -17 | 0.0 | 0.0 | 0.00 | 0.00 | 0.00 | 1017.1 | ||
| 20260506040110 | -17 | 0.0 | 0.0 | 0.00 | 0.00 | 0.00 | 1016.8 | ||
| 20260506040002 | -17 | 0.0 | 0.0 | 0.00 | 0.00 | 0.00 | 1016.7 | ||
| 20260506033038 | -17 | 0.0 | 0.0 | 0.00 | 0.00 | 0.00 | 1016.8 | ||
| 20260506031533 | -17 | 0.0 | 0.0 | 0.00 | 0.00 | 0.00 | 1016.7 | ||
| 20260506024521 | -17 | 0.0 | 0.0 | 0.00 | 0.00 | 0.00 | 1016.9 | ||
| 20260506021540 | -17 | 0.0 | 0.0 | 0.00 | 0.00 | 0.00 | 1016.8 | ||
| 20260506020032 | -17 | 0.0 | 0.0 | 0.00 | 0.00 | 0.00 | 1016.9 | ||
| 20260506013006 | -17 | 0.0 | 0.0 | 0.00 | 0.00 | 0.00 | 1016.9 | ||
| 20260506011551 | -17 | 0.0 | 0.0 | 0.00 | 0.00 | 0.00 | 1016.8 |